EW6756 Weather Reports


Display with metric or nautical units.
time (UTC)temp
F
wind
direction
speed
MPH
gust
MPH
rain 1hr
in
rain 24hr
in
rain mn
in
humidity
%
barometer
mb
20260901082503 65 244 2.0 11.0 0.00 0.39 0.09 96 1014.3
20260901082004 64 241 2.0 10.0 0.00 0.39 0.09 97 1014.2
20260901081503 64 238 2.0 10.0 0.00 0.39 0.09 97 1014.1
20260901081005 64 214 2.0 10.0 0.00 0.39 0.09 98 1014.1
20260901080504 64 209 2.0 10.0 0.00 0.39 0.09 98 1013.9
20260901080005 64 235 1.0 10.0 0.00 0.39 0.09 98 1014.1
20260901075503 64 249 2.0 7.0 0.00 0.39 0.09 99 1013.9
20260901075005 63 228 2.0 10.0 0.00 0.39 0.09 99 1014.1
20260901074504 63 226 2.0 10.0 0.00 0.39 0.09 99 1013.9
20260901074004 63 226 2.0 10.0 0.00 0.39 0.09 99 1013.9
20260901073505 63 226 1.0 10.0 0.00 0.39 0.09 99 1014.0
20260901073004 63 236 1.0 7.0 0.00 0.39 0.09 99 1013.8
20260901072504 63 248 1.0 5.0 0.02 0.39 0.09 99 1013.7
20260901072218 63 228 1.0 5.0 0.02 0.39 0.09 99 1013.6
20260901071505 62 242 0.0 4.0 0.02 0.39 0.09 99 1013.6
20260901071216 62 265 0.0 4.0 0.02 0.39 0.09 99 1013.8
20260901070504 62 258 0.0 4.0 0.02 0.39 0.09 99 1013.6
20260901070004 62 253 1.0 7.0 0.02 0.39 0.09 99 1013.6
20260901065504 62 250 1.0 7.0 0.02 0.39 0.09 99 1013.3
20260901065220 62 252 1.0 7.0 0.02 0.39 0.09 99 1013.6
20260901064505 61 233 0.0 3.0 0.02 0.39 0.09 99 1013.3
20260831123503 73 217 3.0 15.0 0.00 0.05 0.05 69 1006.3
20260831123003 73 246 5.0 15.0 0.00 0.05 0.05 68 1006.4
20260831122505 73 245 5.0 15.0 0.00 0.05 0.05 70 1006.3
20260831122005 73 222 5.0 15.0 0.00 0.05 0.05 70 1006.3
20260831121505 72 202 5.0 15.0 0.00 0.05 0.05 70 1006.3
20260831121005 72 209 4.0 15.0 0.00 0.05 0.05 72 1006.2
20260831120504 72 189 3.0 15.0 0.00 0.05 0.05 72 1006.6
20260831120005 72 188 4.0 16.0 0.00 0.05 0.05 73 1006.3
20260831115505 72 203 4.0 16.0 0.00 0.05 0.05 73 1006.4
20260831115004 72 192 4.0 16.0 0.00 0.05 0.05 74 1006.2
20260831114504 72 195 3.0 15.0 0.00 0.05 0.05 74 1006.3
20260831114217 71 207 4.0 18.0 0.00 0.05 0.05 75 1006.4
20260831113505 71 234 5.0 18.0 0.00 0.06 0.05 76 1006.3
20260831113004 71 237 4.0 15.0 0.00 0.07 0.05 75 1006.3
20260831112504 71 240 3.0 11.0 0.00 0.07 0.05 75 1006.4
20260831112005 71 228 3.0 15.0 0.00 0.07 0.05 75 1006.4
20260831111718 71 235 4.0 15.0 0.00 0.07 0.05 75 1006.5
20260831111005 71 251 2.0 11.0 0.00 0.07 0.05 76 1006.4
20260831110504 71 265 2.0 8.0 0.00 0.07 0.05 77 1006.1
20260831110004 70 195 4.0 14.0 0.00 0.07 0.05 76 1006.3
20260831105503 71 187 4.0 14.0 0.00 0.07 0.05 76 1006.4
20260831105003 71 227 4.0 12.0 0.00 0.07 0.05 76 1006.4
20260831104504 71 242 4.0 12.0 0.00 0.07 0.05 77 1006.4
20260831104005 71 225 4.0 15.0 0.00 0.07 0.05 78 1006.6
20260831103505 71 225 4.0 15.0 0.00 0.07 0.05 79 1006.6
20260831103005 70 233 4.0 15.0 0.00 0.07 0.05 80 1006.6
20260831102720 70 241 3.0 12.0 0.00 0.07 0.05 81 1006.6
20260831102003 69 210 2.0 8.0 0.00 0.07 0.05 81 1006.7
20260831101504 70 208 3.0 11.0 0.00 0.07 0.05 81 1006.9
20260831101003 70 214 4.0 14.0 0.00 0.07 0.05 81 1006.8
20260831100503 70 223 3.0 14.0 0.00 0.07 0.05 82 1006.9
20260831100004 69 213 2.0 7.0 0.00 0.07 0.05 83 1006.9
20260831095504 69 201 3.0 10.0 0.00 0.07 0.05 82 1006.9
20260831095006 69 210 3.0 14.0 0.00 0.07 0.05 82 1006.9
20260831094506 69 221 2.0 14.0 0.00 0.07 0.05 82 1006.9
20260831094003 69 213 2.0 14.0 0.00 0.07 0.05 82 1006.9
20260831093505 69 201 3.0 10.0 0.00 0.07 0.05 82 1007.0
20260831093003 69 200 2.0 10.0 0.00 0.07 0.05 82 1006.8